Regional Weather Roundup
Issued by NWS Lake Charles, LA

Current Version | Previous Version | Text Only | Print | Product List | Glossary On
Versions: 1 2 3 4 5 6 7 8 9 10 11 12 13 14 15 16 17 18 19 20 21 22 23 24 25 26 27 28 29 30 31 32 33 34 35 36 37 38 39 40 41 42 43 44 45 46 47 48 49 50
000
ASUS44 KLCH 240411
RWRLCH
REGIONAL WEATHER ROUNDUP
NATIONAL WEATHER SERVICE LAKE CHARLES LA
1000 PM CST THU NOV 23 2017

Note: "fair" indicates few or no clouds below 12,000 feet with no
significant weather and/or obstructions to visibility.


ACROSS SOUTHEAST TEXAS

CITY           SKY/WX    TMP DP  RH WIND       PRES   REMARKS
BEAUMONT       CLEAR     44  39  82 CALM      30.09F
BEAUMONT CITY  FAIR      45  41  88 CALM      30.10S
ORANGE         CLEAR     41  40  98 CALM      30.11F
JASPER         CLEAR     42  41  98 CALM      30.12S
$$

ACROSS CENTRAL LOUISIANA

CITY           SKY/WX    TMP DP  RH WIND       PRES   REMARKS
LEESVILLE      CLEAR     40  37  88 CALM      30.08F
FULLERTON      NOT AVBL
ALEXANDRIA INT CLEAR     40  33  76 CALM      30.07F
ESLER FIELD    CLEAR     34  34 100 CALM      30.08F
DERIDDER       FAIR      41  39  93 CALM      30.11S
OAKDALE        PTCLDY    34  32  94 CALM      30.10S
OPELOUSAS      FAIR      39  37  91 CALM      30.10S
$$

ACROSS SOUTHWEST AND SOUTH CENTRAL LOUISIANA

CITY           SKY/WX    TMP DP  RH WIND       PRES   REMARKS
SULPHUR        CLEAR     43  38  83 CALM      30.11S
LAKE CHARLES   CLEAR     42  38  85 CALM      30.09F
CHENNAULT INT  CLEAR     40  37  88 CALM      30.10F
CAMERON PHI    CLEAR     50  41  71 CALM      30.10F
DEQUINCY       FAIR      38  37  93 CALM      30.10S
JENNINGS       FAIR      43  37  79 CALM      30.10F
LAFAYETTE      PTCLDY    45  36  70 CALM      30.10S
NEW IBERIA     PTCLDY    43  33  68 NW5       30.10S
ABBEVILLE      FAIR      37  35  92 CALM      30.10S
PATTERSON      CLEAR     47  35  63 N5        30.08S
SALT POINT       N/A      1  32 100 N3        30.07S
$$

SELECTED SITES ACROSS THE REGION

CITY           SKY/WX    TMP DP  RH WIND       PRES   REMARKS
HOUSTON BUSH   CLEAR     48  39  71 CALM      30.10R
HOUSTON HOBBY  CLEAR     49  41  74 CALM      30.09S
GALVESTON      CLEAR     55  47  74 S3        30.10F
COLLEGE STAT   CLEAR     49  36  61 CALM      30.09S
CONROE         CLEAR     40  39  97 CALM      30.10S
HUNTSVILLE     CLEAR     46  37  71 CALM      30.09S
LUFKIN         CLEAR     42  39  89 CALM      30.09S
SHREVEPORT     CLEAR     44  35  70 CALM      30.07F
MONROE         CLEAR     39  33  79 CALM      30.09F
NATCHEZ MS     CLEAR     37  33  85 CALM      30.10
BATON ROUGE    PTCLDY    44  31  60 N5        30.09R
N.O. INTL ARPT CLEAR     54  39  57 N5        30.06S
SLIDELL        CLEAR     40  35  83 N5        30.05S
$$

MARINE REPORTS

STATION/POSITION TIME  SKY/WX   TEMP    WIND        PRES    VSBY
                                AIR SEA DIR/SP/G
                 (UTC)          (F)     (DEG/KT/KT) (MB)    (MI)
BUOY 30 S HIGH I 0250            61 69  360/  6/ 10 1019.3
WVE H/P(F/S)=  1/ 7

SEA RIM ST PARK  0400            53      30/  3/  4 1019.5F
PORT ARTHUR      0342            53 63   20/  3/  4 1019.2F
SABINE PASS N    0342            54 64   CALM  /  3 1020.6F
TEXAS POINT      NOT AVBL
CALCASIEU PASS   0342            56 63   10/  5/  7 1018.0F
LK CHARLES BEACH 0342            51 66              1018.6F
MARSH ISLAND     0300            56                   N/A
FRESH WATER LOCK 0342            47 65  340/  3/  4 1018.9R
AMERADA PASS     0342            51 58  320/  4/  7 1018.3R
$$



USA.gov is the U.S. government's official web portal to all federal, state and local government web resources and services.